Location: Shepherdstown, WV
(39.4326°N, 77.8042°W)
Time: 06:24:36
(UTC-04:00)

SR - Pass Details

Date: 02 August 2021
Orbit: 581 x 874 km, 66.7° (Epoch: 24 September)

Event Time Altitude Azimuth Distance (km) Brightness Sun altitude
Rises 05:32:43 0° 171° (S) 3,446 ? -7.6°
Reaches altitude 10° 05:35:42 10° 158° (SSE) 2,502 ? -7.1°
Maximum altitude 05:40:10 23° 107° (ESE) 1,727 ? -6.4°
Drops below altitude 10° 05:44:30 10° 57° (ENE) 2,431 ? -5.6°
Sets 05:47:20 0° 44° (NE) 3,324 ? -5.1°
